Regional Weather Roundup
Issued by NWS Charleston, WV

Home | Current Version | Previous Version | Text Only | Print | Product List | Glossary Off
Versions: 1 2 3 4 5 6 7 8 9 10 11 12 13 14 15 16 17 18 19 20 21 22 23 24 25 26 27 28 29 30 31 32 33 34 35 36 37 38 39 40 41 42 43 44 45 46 47 48 49 50

000
ASUS41 KRLX 262110
RWRRLX
West Virginia Regional Weather Roundup
National Weather Service Charleston WV
500 PM EDT THU MAR 26 2015

Note: "fair" indicates few or no clouds below 12,000 feet with no
significant weather and/or obstructions to visibility.

WVZ003-262200-
Northern Panhandle of West Virginia

CITY           SKY/WX    TMP DP  RH WIND       PRES   REMARKS
WHEELING       CLOUDY    43  39  86 N9        29.79R
$$

WVZ009-262200-
Northwest West Virginia

CITY           SKY/WX    TMP DP  RH WIND       PRES   REMARKS
PARKERSBURG    CLOUDY    47  41  80 NW8       29.84R
$$

WVZ006-262200-
Western West Virginia

CITY           SKY/WX    TMP DP  RH WIND       PRES   REMARKS
HUNTINGTON     CLOUDY    48  41  76 NW12G20   29.83R
$$

WVZ015-262200-
West Central West Virginia

CITY           SKY/WX    TMP DP  RH WIND       PRES   REMARKS
CHARLESTON     CLOUDY    49  45  86 NW13G21   29.80R
$$

WVZ022-031-262200-
North Central West Virginia

CITY           SKY/WX    TMP DP  RH WIND       PRES   REMARKS
CLARKSBURG     LGT RAIN  47  44  90 N10       29.76R
MORGANTOWN     LGT RAIN  45  40  82 N13       29.78R
$$

WVZ025-035-042-045-262200-
Southern West Virginia

CITY           SKY/WX    TMP DP  RH WIND       PRES   REMARKS
BECKLEY        TSTM      54  51  90 W8        29.76R FOG
LOGAN          CLOUDY    50  50 100 NW10      29.75R
BLUEFIELD      PTSUNNY   69  47  45 SW20G26   29.74F
LEWISBURG      PTSUNNY   66  52  60 W10G20    29.72F
$$

WVZ047-262200-
Northern Mountains of West Virginia

CITY           SKY/WX    TMP DP  RH WIND       PRES   REMARKS
ELKINS         LGT RAIN  54  51  90 VRB7G18   29.72R
$$

WVZ052-262200-
Eastern Panhandle of West Virginia

CITY           SKY/WX    TMP DP  RH WIND       PRES   REMARKS
MARTINSBURG    CLOUDY    74  55  51 S8        29.57F
PETERSBURG     PTSUNNY   71  46  40 NW17G23   29.61S
$$



USA.gov is the U.S. government's official web portal to all federal, state and local government web resources and services.